Regional Weather Roundup
Issued by NWS Sioux Falls, SD

Home | Current Version | Previous Version | Text Only | Print | Product List | Glossary On
Versions: 1 2 3 4 5 6 7 8 9 10 11 12 13 14 15 16 17 18 19 20 21 22 23 24 25 26 27 28 29 30 31 32 33 34 35 36 37 38 39 40 41 42 43 44 45 46 47 48 49 50
000
ASUS43 KFSD 011410
RWRFSD

WEATHER ROUNDUP FOR SE SOUTH DAKOTA/SW MINNESOTA/NW IOWA
NATIONAL WEATHER SERVICE SIOUX FALLS SD
900 AM CDT SUN MAY 01 2016

NOTE: "FAIR" INDICATES FEW OR NO CLOUDS BELOW 12,000 FEET WITH NO
SIGNIFICANT WEATHER AND OR OBSTRUCTIONS TO VISIBILITY.


SDZ038>040-050-052>070-011500-
SOUTHEAST SOUTH DAKOTA

CITY           SKY/WX    TMP DP  RH WIND       PRES   REMARKS
BROOKINGS      SUNNY     41  31  67 NE12      30.19R
CHAMBERLAIN    SUNNY     43  36  75 N12G17    30.24S
HURON          SUNNY     43  32  65 NE13      30.24R
MADISON        FAIR      39  37  93 NE15G21   30.18S
MITCHELL       CLOUDY    41  35  79 N12       30.22R
SIOUX FALLS    LGT RAIN  40  35  83 N12       30.17R
WINNER         FAIR      43  35  73 N10       30.24R
YANKTON        PTSUNNY   43  37  81 N14       30.16R
$$

MNZ071-072-080-081-089-090-097-098-011500-
SOUTHWEST MINNESOTA

CITY           SKY/WX    TMP DP  RH WIND       PRES   REMARKS
FAIRMONT       CLOUDY    41  34  75 N13       30.11S
JACKSON        CLOUDY    41  36  81 N15       30.12S
LUVERNE        LGT RAIN  39  34  81 N13       30.16R
MARSHALL       MOSUNNY   41  33  73 NE12      30.20R
MONTEVIDEO     SUNNY     45  34  65 E16       30.22S
REDWOOD FALLS  CLOUDY    45  33  63 NE8G17    30.18R
TRACY          MOSUNNY   41  36  80 N13       30.18R
WINDOM         CLOUDY    43  37  81 N16       30.14S
WORTHINGTON    CLOUDY    39  35  86 N16       30.14R
$$

IAZ001>003-012>014-020>022-031-032-NEZ013-014-SDZ071-011500-
NORTHWEST IOWA

CITY           SKY/WX    TMP DP  RH WIND       PRES   REMARKS
CHEROKEE       DRIZZLE   42  42 100 NE9       30.10R
DENISON        LGT RAIN  43  41  93 NE18      30.02R
ESTHERVILLE    CLOUDY    41  38  89 N16       30.11R
LE MARS        LGT RAIN  43  41  93 NE13G22   30.12R
ORANGE CITY    DRIZZLE   43  39  87 NE14      30.11R
SHELDON        CLOUDY    41  39  93 N20       30.10R
SIOUX CITY     LGT RAIN  45  41  86 NE14      30.10R FOG
SPENCER        CLOUDY    42  37  82 N20       30.10R
STORM LAKE     MIX PCPN  43  41  93 NE21G28   30.07R VSB 1
$$

ABBREVIATIONS USED IN REMARKS
   TC - TEMPERATURE IN CELSIUS
  WCI - WIND CHILL INDEX
   HX - HEAT INDEX
  VSB - VISIBILITY




USA.gov is the U.S. government's official web portal to all federal, state and local government web resources and services.